Regional Weather Roundup
Issued by NWS

Home | Current Version | Previous Version | Text Only | Print | Product List | Glossary On
Versions: 1 2 3 4 5 6 7 8 9 10 11 12 13 14 15 16 17 18 19 20 21 22 23 24 25 26 27 28 29 30 31 32 33 34 35 36 37 38 39 40 41 42 43 44 45 46 47 48 49 50
000
ASUS46 KLOX 231604
RWRCA

SOUTHERN CALIFORNIA WEATHER ROUNDUP
NATIONAL WEATHER SERVICE OXNARD CALIFORNIA
800 AM PST THU NOV 23 2017

NOTE: "FAIR" INDICATES FEW OR NO CLOUDS BELOW 12,000 FEET WITH NO
SIGNIFICANT WEATHER AND/OR OBSTRUCTIONS TO VISIBILITY.

  -  STATIONS PRECEEDED BY AN ASTERISK (*) ARE NOT NWS OR FAA
     STATIONS AND ARE NOT SUBJECT TO NWS AND FAA QUALITY CONTROL.

CAZ041-042-087-231700-
LA AND ORANGE COUNTY COASTAL AREAS


CITY           SKY/WX    TMP DP  RH WIND       PRES   REMARKS
L.A. DOWNTOWN  SUNNY     72  40  31 NE3       30.02R
L.A. AIRPORT   MOSUNNY   75  41  29 NE3       30.02R
LONG BEACH     SUNNY     69  43  38 NW5       30.02R

CITY           SKY/WX    TMP DP  RH WIND       PRES   REMARKS
FULLERTON      SUNNY     67  48  50 CALM      30.01R
*GETTY CENTER    N/A     79  34  19 VRB10       N/A
HAWTHORNE      SUNNY     75  42  30 CALM      30.03R
*LOS ALAMITOS  FAIR      67  47  49 CALM      30.01R
*REDONDO BEACH   N/A     65  44  46 CALM      30.01R
SANTA ANA      MOSUNNY   68  48  48 N5        30.01R
STA MONICA APT SUNNY     77  40  26 NE5       30.03R
TORRANCE       SUNNY     72  43  35 SW5       30.02R
*UCLA            N/A     81  36  19 N6        30.01R

$$

CAZ547-548-048-231700-
LA COUNTY VALLEYS AND INLAND EMPIRE


CITY           SKY/WX    TMP DP  RH WIND       PRES   REMARKS
BURBANK        SUNNY     69  42  37 CALM      30.06R
VAN NUYS       SUNNY     66  40  38 NW3       30.06R

CITY           SKY/WX    TMP DP  RH WIND       PRES   REMARKS
CORONA AIRPORT SUNNY     60  45  57 CALM      30.07R
*CHATSWORTH      N/A     69  43  38 CALM      30.02S
CHINO          MOSUNNY   66  51  58 CALM      30.07S
*CLAREMONT       N/A     67  43  41 CALM        N/A
MARCH AFB      SUNNY     61  38  42 CALM      30.10R
ONTARIO        MOSUNNY   68  41  37 CALM      30.07R
*PASADENA        N/A     70  45  40 CALM        N/A
POMONA         SUNNY     66  37  34 SE5       30.09R
RIVERSIDE      SUNNY     67  40  37 NE5       30.07R
SAN BERNARDINO NOT AVBL
*WHITEMAN AP   SUNNY     72  36  26 CALM      30.10
*WOODLAND HILL   N/A     63  41  45 CALM        N/A

$$

CAZ054-055-231700-
LA AND SAN BERNARDINO COUNTY MOUNTAINS


CITY           SKY/WX    TMP DP  RH WIND       PRES   REMARKS
*ACTON           N/A     64  36  35 CALM        N/A
*BIG BEAR AIRP SUNNY     36  23  60 CALM      30.40S
*BIG PINES       N/A     62  22  21 CALM        N/A
*CHILAO          N/A     71  32  24 CALM        N/A
SANDBERG       SUNNY     70  32  24 NE9       30.28R
*WARM SPRINGS    N/A     69  32  25 NE17        N/A

$$

CAZ028-029-059-060-099-231700-
ANTELOPE VALLEY AND SURROUNDING AREAS


CITY           SKY/WX    TMP DP  RH WIND       PRES   REMARKS
LANCASTER      SUNNY     47  29  49 CALM      30.22R
PALMDALE       SUNNY     53  33  46 CALM      30.22R

CITY           SKY/WX    TMP DP  RH WIND       PRES   REMARKS
29 PALMS       SUNNY     57  30  35 NW5       30.24S
BARSTOW/DAGGET SUNNY     56  33  42 W14       30.18S
BISHOP         PTSUNNY   44  37  76 W3        30.28F
CHINA LAKE     SUNNY     49  30  48 CALM      30.21R
EDWARDS AFB    SUNNY     44  17  34 CALM      30.20R
MOJAVE         SUNNY     59  32  36 CALM      30.21R
NEEDLES        SUNNY     71  37  28 CALM      30.13R
VICTORVILLE    SUNNY     55  32  41 CALM      30.21R

$$

CAZ039-040-231700-
VENTURA AND SANTA BARBARA COUNTY COAST


CITY           SKY/WX    TMP DP  RH WIND       PRES   REMARKS
CAMARILLO      SUNNY     69  45  41 NW3       30.02R
NWS OXNARD       N/A     69  40  34 CALM      30.01R
OXNARD AIRPORT SUNNY     74  40  29 NE9       30.02S
*POINT MUGU    SUNNY     70  44  39 N8        30.02R
SBA APT/GOLETA SUNNY     57  48  72 CALM      30.02S
*SANTA BARBARA   N/A     60  48  63 CALM      30.10R
*VENTURA         N/A     74  42  31 N1        29.99R

$$

CAZ044-045-231700-
VENTURA COUNTY VALLEYS


CITY           SKY/WX    TMP DP  RH WIND       PRES   REMARKS
*SIMI VALLEY     N/A     79  39  24 E9        29.97S
*WESTLAKE VILL   N/A     53  45  74 CALM      30.03S
*OJAI            N/A     56  47  71 CALM      30.02S

$$

CAZ053-231700-
VENTURA COUNTY MOUNTAINS


CITY           SKY/WX    TMP DP  RH WIND       PRES   REMARKS
*LOCKWOOD VLY    N/A     36  23  60 NW1         N/A
*ROSE VALLEY     N/A     37  30  75 MISG        N/A

$$

CAZ034-035-036-231700-
CENTRAL COAST AND SANTA YNEZ VALLEY


CITY           SKY/WX    TMP DP  RH WIND       PRES   REMARKS
SAN LUIS OBISP MOSUNNY   55  47  74 NW5       30.07R
SANTA MARIA    SUNNY     57  48  72 CALM      30.06S

CITY           SKY/WX    TMP DP  RH WIND       PRES   REMARKS
*LOMPOC        SUNNY     54  45  71 E6        30.06R
*PISMO BEACH     N/A     60  55  84 NW3       30.07R

$$

CAZ037-038-051-231700-
SAN LUIS OBISPO COUNTY INTERIOR AND CUYAMA VALLEY


CITY           SKY/WX    TMP DP  RH WIND       PRES   REMARKS
*CUYAMA          N/A     57  35  44 CALM      30.06S
PASO ROBLES    MOSUNNY   51  41  68 CALM      30.14R

$$

CAZ032-033-061-231700-
SOUTHERN DESERTS


CITY           SKY/WX    TMP DP  RH WIND       PRES   REMARKS
BLYTHE         SUNNY     63  31  30 SW5       30.09S
IMPERIAL       SUNNY     66  41  40 W6        30.04R
PALM SPRINGS   SUNNY     72  40  31 NW5       30.08R
THERMAL        SUNNY     66  44  45 N5        30.03S

$$

ELSEWHERE ACROSS THE WESTERN UNITED STATES AND MEXICO


CITY           SKY/WX    TMP DP  RH WIND       PRES   REMARKS
DENVER, CO     CLOUDY    55  32  41 SW13      30.19S
GRAND CANYON,  SUNNY     45  32  60 CALM      30.41F
HONOLULU, HI   LGT RAIN  75  59  57 NE14G22   30.07R
KAHULUI, MAUI  MOCLDY    72  63  73 E10       30.06R
LAKE TAHOE, CA SUNNY     39  35  86 CALM      30.33S
LAS VEGAS, NV  MOSUNNY   60  39  45 CALM      30.19S
MAMMOTH LAKES, FAIR      29  27  92 NW3       30.42S
MEXICO CITY, M SUNNY     52  36  54 E5        30.40R
PHOENIX, AZ    MOSUNNY   68  35  29 CALM      30.10R
PORTLAND, OR   MOCLDY    60  57  89 S12       29.91R
RENO, NV       MOSUNNY   41  38  89 CALM      30.27R
SALT LAKE CITY PTSUNNY   51  41  68 SE7       30.27R
SAN DIEGO, CA  MOSUNNY   69  42  37 CALM      30.03R
SAN FRANCISCO, MOCLDY    59  56  89 E3        30.14R
SAN JOSE, CA   PTSUNNY   58  56  93 CALM      30.15R
SEATTLE, WA    LGT RAIN  54  52  93 S10       29.82S FOG
TIJUANA, MEX   SUNNY     79  34  19 E7        30.05

$$

STATION/POSITION TIME  TEMP    WIND        PRES    VSBY  WAVE
                       AIR SEA DIR/SP/G                  HT/PER
                 (UTC) (F)     (DEG/KT/KT) (MB)    (MI)  (FT/S)
POINT ARGUELLO B NOT AVBL
WEST SANTA BARBA 1540   61 60  320/  6/ 10 1016.3R
POINT CONCEPTION NOT AVBL
EAST SANTA BARBA 1540   61 61  260/  4/  4 1017.4R
SANTA MONICA BAY 1540      65  330/  8/  8 1016.1R



USA.gov is the U.S. government's official web portal to all federal, state and local government web resources and services.